Flag for Brazil Weather past 2 weeks in Santa María, Rio Grande do Sul, Brazil

Now
77 °F

Broken clouds.


Feels Like: 78 °F
Forecast: 67 / 79 °F
Wind: 9 mph from Northwest

Location: Porto Alegre Aero-Porto

Current Time: Jan 29, 2015 at 8:26:15 AM

Latest Report: Jan 29, 2015 at 8:00 AM


Visibility: N/A

Pressure: 29.74 "Hg

Humidity: 94%

Dew point: 75 °F

Location of Santa MaríaLocation

Historic Weather in Santa María — Graph

°F

Santa María temperature yesterday

Maximum temperature yesterday: 93 °F (at 3:00 PM)
Minimum temperature yesterday: 75 °F (at 4:00 AM)
Average temperature yesterday: 81 °F

Past Weeks' High & Low Weather Summary

 TemperatureHumidityPressure
High95 °F (Jan 27, 3:00 PM)100% (Jan 14, 6:00 PM)30.18 "Hg (Jan 14, 6:00 PM)
Low37 °F (Jan 14, 6:00 PM)43% (Jan 25, 6:00 PM)29.71 "Hg (Jan 28, 3:00 PM)
Average78 °F78%29.92 "Hg
* Reported Jan 14 7:00 AM — Jan 29 7:00 AM, Santa María, Weather by CustomWeather, © 2014

Note: Actual official high and low records may vary slightly from our data, if they occured in-between our weather recording intervals... More about our weather records

Advertising

Santa María weather history for previous 24 hours

 ConditionsComfort  
Time TempWeatherWind HumidityBarometerVisibility
7:00 AM
Jan 29
75 °FBroken clouds.5 mph100%29.71 "HgN/A
6:00 AM75 °FPartly cloudy.5 mph100%29.71 "Hg5 mi
5:00 AM75 °FLight rain. Passing clouds.6 mph100%29.71 "HgN/A
4:00 AM75 °FPassing clouds.3 mph100%29.71 "HgN/A
3:00 AM77 °FPassing clouds.6 mph94%29.71 "HgN/A
2:00 AM77 °FPassing clouds.7 mph94%29.71 "HgN/A
1:00 AM77 °FPassing clouds.5 mph94%29.71 "HgN/A
12:00 AM77 °FPassing clouds.3 mph94%29.74 "HgN/A
11:00 PM
Jan 28
N/ALight rain.7 mphN/AN/AN/A
10:00 PM77 °FPartly cloudy.3 mph100%29.74 "HgN/A
9:00 PM79 °FLight rain. Partly cloudy.6 mph89%N/AN/A
8:00 PM79 °FBroken clouds.6 mph89%29.74 "HgN/A
7:00 PM81 °FBroken clouds.8 mph89%29.74 "HgN/A
6:00 PM81 °FBroken clouds.6 mph84%29.71 "HgN/A
5:00 PM79 °FThunderstorms. Partly sunny.9 mph89%N/A5 mi
4:00 PM90 °FScattered showers. Broken clouds.9 mph59%N/AN/A
3:00 PM93 °FScattered clouds.8 mph53%29.71 "HgN/A
2:00 PM91 °FPassing clouds.9 mph56%29.77 "HgN/A
1:00 PM90 °FPassing clouds.8 mph55%29.77 "HgN/A
12:00 PM88 °FSunny.5 mph62%29.80 "Hg10 mi
11:00 AM86 °FSunny.6 mph62%29.80 "Hg10 mi
10:00 AM81 °FSunny.2 mph70%29.83 "Hg10 mi
9:00 AM79 °FSunny.2 mph74%29.83 "Hg10 mi
8:00 AM77 °FSunny.3 mph79%29.80 "Hg10 mi
Weather by CustomWeather, © 2014

See weather overviewHow to use our weather pages